Terug naar catalogus

COSMOS 970 DEB

ActiefLEO
NORAD 65011·DEBRIS·🇷🇺 Russia

Gelanceerd Dec 21, 1977 vanaf Baikonur Cosmodrome

Loading…

Volgende Passages (komende 24 uur)

TLE

VersSource: Space-Track

Epoch: Sep 13, 2026, 20:18 UTC

1 65011U 77121DY  26256.84593998  .00000272  00000-0  33605-3 0  9998
2 65011  65.8322 196.0504 0124372  55.1218 337.7462 13.77253422643356

Volg COSMOS 970 DEB in realtime met AllMySat

Download on the App Store